IRIDIUM 144

Last updated on Tue Sep 22 2026 00:03:21 GMT+0000 (Coordinated Universal Time)

1 43249U 18030A 26264.23207570 .00000001 00000+0 -66557-5 0 9995 2 43249 86.3914 250.2215 0002061 88.2331 271.9101 14.34217521443907
UTC large
Height (km)
Speed (km/s)
/
Latitude / Longitude
Inclination (degrees)
Orbital Period (minutes)
Azimuth
Elevation
Range (km)
Doppler Factor

Next 0 passes for location: London (51.5072 / 0.1276)

No passes found over London.
IRIDIUM 144